User: anonymous   Login
Location: Unspecified
(0.0000°N, 0.0000°E)
Time: 02:03:21
(UTC+00:00)
Language:

ONEWEB-0711 - Orbit

View from above orbital plane
View from above orbital plane
View from above satellite
View from above satellite

Ground track
Ground track

The orbit is defined by the following mean orbital elements,

1 55174U          26145.05761441 +.00000000 +00000-0 +73328-3 0 00007
2 55174  87.8908  25.6685 0002351  95.9876 264.1519 13.11415216    04
Epoch (UTC): 25 May 2026 01:22:57
Eccentricity: 0.0002351
inclination: 87.8908°
perigee height: 1216 km
apogee height: 1219 km
right ascension of ascending node: 25.6685°
argument of perigee: 95.9876°
revolutions per day: 13.11415216
mean anomaly at epoch: 264.1519°

The dashed part of the orbit path shows where the satellite is in the earth's shadow,  

DLR